Location: Aghk�ilisa
(40.0189°N, 45.0097°E)
Time: 14:25:07
(UTC+00:00)

Abrixas rocket - Pass Details

Date: 21 October 2019
Orbit: 359 x 368 km, 48.4° (Epoch: 16 November)

Event Time Altitude Azimuth Distance (km) Brightness Sun altitude
Rises 14:45:23 0° 261° (W) 2,216 8.7 -7.0°
Reaches altitude 10° 14:47:32 10° 271° (W) 1,369 6.5 -7.4°
Maximum altitude 14:50:22 33° 338° (NNW) 648 3.4 -8.0°
Drops below altitude 10° 14:53:12 10° 45° (NE) 1,371 4.4 -8.5°
Enters shadow 14:53:34 - 48° (NE) 1,508 4.6 -8.6°
